Eau Claire, WI

12:38 AM CDT on August 22, 2019 (GMT -0500)
Chippewa Valley Regional

Weather History for KEAU - July, 2019

Change the Weather History Date:

Friday, July 19, 2019

  Actual Average Record
Temperature  
Mean Temperature 80 °F 72 °F  
Max Temperature 92 °F 83 °F 103 °F (1901)
Min Temperature 68 °F 60 °F 46 °F (1929)
Degree Days  
Heating Degree Days 0 0  
Month to date heating degree days 0 0  
Since 1 June heating degree days 64 62  
Since 1 July heating degree days 0 0  
Cooling Degree Days 15 7  
Month to date cooling degree days 171 132  
Year to date cooling degree days 242 284  
Since 1 June cooling degree days 232 252  
Growing Degree Days 30 (Base 50)    
Moisture  
Dew Point 71 °F    
Average Humidity 78    
Maximum Humidity 97    
Minimum Humidity 59    
Precipitation  
Precipitation 0.30 in 0.13 in 1.77 in (1997)
Month to date precipitation 3.36 2.36  
Year to date precipitation 22.87 16.13  
Snow  
Snow 0.00 in 0.00 in 0.00 in ()
Month to date snowfall 0.0 0.0  
Since 1 June snowfall 0.0 0.0  
Since 1 July snowfall 0.0 0.0  
Snow Depth 0.00 in    
Sea Level Pressure  
Sea Level Pressure 29.68 in    
Wind  
Wind Speed 5 mph (SE)    
Max Wind Speed 36 mph    
Max Gust Speed 54 mph    
Visibility 9 miles    
Events Rain , Thunderstorm    
T = Trace of Precipitation, MM = Missing Value Source: NWS Daily Summary

Daily Weather History Graph

Daily Weather History Graph

Search for Another Location

Airport or City:

Astronomy

Jul. 19, 2019 Rise Set
Actual Time 5:37 AM CDT 8:46 PM CDT
Civil Twilight 5:02 AM CDT 9:21 PM CDT
Nautical Twilight 4:16 AM CDT 10:06 PM CDT
Astronomical Twilight 3:21 AM CDT 11:02 PM CDT
Moon 10:39 PM CDT (7/19) 8:08 AM CDT (7/19)
Length of Visible Light 16h 19m
Length of Day
15h 08m
Waning Gibbous, 93% of the Moon is Illuminated
Jul 19
Waning Gibbous
Jul 24
Last Quarter
Jul 31
New
Aug 7
First Quarter
Aug 15
Full

Hourly Weather History & Observations

Time (CDT) Temp. Heat Index Dew Point Humidity Pressure Visibility Wind Dir Wind Speed Gust Speed Precip Events Conditions
12:56 AM 75.0 °F - 69.1 °F 82% 29.67 in 10.0 mi SSE 5.8 mph - N/A   Scattered Clouds
1:56 AM 73.0 °F - 69.1 °F 87% 29.65 in 10.0 mi Calm Calm - N/A   Clear
2:56 AM 71.1 °F - 69.1 °F 93% 29.67 in 10.0 mi NNW 3.5 mph - N/A   Clear
3:56 AM 70.0 °F - 68.0 °F 93% 29.68 in 10.0 mi ESE 6.9 mph - N/A   Clear
4:56 AM 69.1 °F - 66.9 °F 93% 29.69 in 10.0 mi Calm Calm - N/A   Clear
5:56 AM 69.1 °F - 66.9 °F 93% 29.70 in 10.0 mi Calm Calm - N/A   Clear
6:56 AM 71.1 °F - 69.1 °F 93% 29.75 in 10.0 mi Calm Calm - N/A   Clear
7:56 AM 73.9 °F - 71.1 °F 91% 29.75 in 10.0 mi Calm Calm - N/A   Clear
8:56 AM 79.0 °F - 72.0 °F 79% 29.73 in 10.0 mi Calm Calm - N/A   Clear
9:56 AM 80.1 °F 83.8 °F 72.0 °F 76% 29.74 in 10.0 mi Calm Calm - N/A   Clear
10:56 AM 84.0 °F 91.2 °F 73.9 °F 72% 29.73 in 10.0 mi SE 5.8 mph - N/A   Clear
11:56 AM 86.0 °F 93.0 °F 73.0 °F 65% 29.72 in 10.0 mi Variable 6.9 mph - N/A   Clear
12:56 PM 88.0 °F 93.8 °F 71.1 °F 57% 29.70 in 10.0 mi SE 6.9 mph - N/A   Clear
1:56 PM 90.0 °F 97.9 °F 73.0 °F 57% 29.71 in 10.0 mi SE 6.9 mph - N/A   Clear
2:56 PM 91.0 °F 101.6 °F 75.0 °F 59% 29.70 in 10.0 mi SE 10.4 mph - N/A   Partly Cloudy
3:56 PM 91.0 °F 102.9 °F 75.9 °F 61% 29.62 in 10.0 mi SSE 23.0 mph 31.1 mph N/A   Clear
4:56 PM 91.0 °F 104.2 °F 77.0 °F 63% 29.58 in 10.0 mi South 19.6 mph 31.1 mph N/A   Clear
5:56 PM 89.1 °F 101.4 °F 77.0 °F 67% 29.59 in 10.0 mi SSE 12.7 mph 25.3 mph N/A   Clear
6:34 PM 88.0 °F 101.3 °F 78.1 °F 72% 29.62 in 10.0 mi SW 12.7 mph 23.0 mph N/A Thunderstorm Clear
6:49 PM 78.1 °F - 66.0 °F 66% 29.66 in 10.0 mi NW 24.2 mph 54.1 mph N/A Thunderstorm Squalls
6:56 PM 75.0 °F - 66.9 °F 76% 29.65 in 8.0 mi NW 28.8 mph 54.1 mph 0.00 in Rain , Thunderstorm Light Thunderstorms and Rain
7:26 PM 73.9 °F - 66.9 °F 79% 29.63 in 10.0 mi NNE 23.0 mph 38.0 mph 0.03 in Thunderstorm Thunderstorm
7:56 PM 72.0 °F - 68.0 °F 87% 29.65 in 9.0 mi ENE 4.6 mph - 0.05 in Rain , Thunderstorm Light Rain
8:06 PM 71.1 °F - 68.0 °F 90% 29.64 in 4.0 mi ENE 10.4 mph 18.4 mph 0.08 in Rain , Thunderstorm Heavy Thunderstorms and Rain
8:20 PM 73.0 °F - 70.0 °F 90% 29.68 in 2.5 mi SSW 11.5 mph 32.2 mph 0.24 in Rain , Thunderstorm Thunderstorms and Rain
8:28 PM 72.0 °F - 70.0 °F 93% 29.66 in 6.0 mi South 12.7 mph - 0.25 in Rain , Thunderstorm Light Thunderstorms and Rain
8:44 PM 73.0 °F - 70.0 °F 90% 29.65 in 10.0 mi SSW 10.4 mph - 0.25 in Thunderstorm Scattered Clouds
8:56 PM 73.0 °F - 70.0 °F 90% 29.62 in - North - - 0.25 in Thunderstorm Unknown
9:11 PM - - - N/A% 29.65 in - North - - N/A   Unknown
9:56 PM - - - N/A% 29.70 in - North - - N/A   Unknown
10:56 PM 73.9 °F - 71.1 °F 91% 29.69 in 10.0 mi Calm Calm - N/A   Unknown
11:03 PM 73.9 °F - 71.1 °F 91% 29.71 in 10.0 mi Calm Calm - N/A   Mostly Cloudy
11:41 PM 73.0 °F - 71.1 °F 93% 29.73 in 10.0 mi North 6.9 mph - N/A   Mostly Cloudy
11:56 PM 73.0 °F - 71.1 °F 93% 29.71 in 10.0 mi Calm Calm - N/A   Overcast